�N����,����,�~����,�C��,���x,�C��,����,���ϕ���,�ő�u�ԕ���,�ő厞����,���˗�,�I�_���x,�n�����x,�ő啗���N��,DTYPE
"23/08/15","00:10",0.0,27.1,89.4,992.5,350.3,1.7,4.2,351.6,0.00,25.2,26.4,"00:05:52",1
"23/08/15","00:20",0.0,27.2,88.8,992.0,353.1,1.7,3.7,323.8,0.00,25.2,26.4,"00:17:04",1
"23/08/15","00:30",0.0,27.3,87.5,992.0,359.3,1.8,4.7,327.0,0.00,25.1,26.3,"00:24:32",1
"23/08/15","00:40",0.0,27.9,85.5,992.5,7.1,1.8,5.1,344.0,0.00,25.3,26.5,"00:34:56",1
"23/08/15","00:50",0.0,27.7,83.8,991.8,356.6,1.5,3.2,22.4,0.00,24.7,26.4,"00:49:20",1
"23/08/15","01:00",0.0,28.0,82.0,992.0,358.6,2.1,4.3,344.9,0.00,24.7,26.1,"00:51:28",1
"23/08/15","01:10",0.0,28.2,80.7,992.0,357.2,2.2,6.0,26.0,0.00,24.6,26.2,"01:06:32",1
"23/08/15","01:20",0.0,28.4,79.5,991.5,348.7,2.2,5.1,0.0,0.00,24.5,26.3,"01:16:24",1
"23/08/15","01:30",0.2,28.1,79.6,991.3,359.3,2.0,4.7,346.3,0.00,24.3,26.0,"01:23:36",1
"23/08/15","01:40",0.0,27.8,80.6,991.1,0.0,1.8,3.4,357.3,0.00,24.2,26.2,"01:38:32",1
"23/08/15","01:50",0.2,27.6,81.3,991.3,357.0,1.3,4.1,346.1,0.00,24.1,26.1,"01:40:32",1
"23/08/15","02:00",0.8,27.4,82.3,991.3,14.3,0.7,2.2,2.2,0.00,24.2,26.2,"01:58:48",1
"23/08/15","02:10",3.4,26.9,83.9,991.3,319.5,0.5,1.4,309.0,0.00,24.0,26.0,"02:03:24",1
"23/08/15","02:20",1.8,26.5,85.4,991.3,210.6,1.2,3.1,233.5,0.00,23.9,26.1,"02:11:36",1
"23/08/15","02:30",3.8,26.1,86.7,991.3,37.6,0.5,1.7,90.4,0.00,23.7,26.0,"02:22:24",1
"23/08/15","02:40",1.2,26.0,88.1,991.3,347.4,1.2,4.2,359.4,0.00,23.9,26.0,"02:39:36",1
"23/08/15","02:50",1.4,25.8,89.1,990.8,334.6,1.1,2.6,343.6,0.00,23.9,26.0,"02:44:48",1
"23/08/15","03:00",1.4,25.7,89.8,991.1,7.3,1.3,3.9,333.2,0.00,23.9,25.7,"02:57:36",1
"23/08/15","03:10",0.6,25.8,90.1,990.6,19.3,2.0,7.0,10.1,0.00,24.1,25.8,"03:01:12",1
"23/08/15","03:20",0.0,25.9,89.9,990.6,13.0,2.0,4.5,8.6,0.00,24.2,25.9,"03:16:40",1
"23/08/15","03:30",0.0,26.2,89.6,990.4,11.1,1.7,4.0,95.4,0.00,24.4,25.8,"03:28:48",1
"23/08/15","03:40",0.0,26.7,88.1,989.6,21.5,3.4,7.1,22.1,0.00,24.6,26.1,"03:32:32",1
"23/08/15","03:50",0.0,27.1,86.0,989.9,2.7,3.0,7.5,324.5,0.00,24.6,26.0,"03:42:00",1
"23/08/15","04:00",0.2,27.0,84.6,989.6,12.0,2.5,7.3,3.1,0.00,24.2,25.9,"03:56:32",1
"23/08/15","04:10",1.6,26.8,84.3,990.1,21.7,2.5,5.5,11.1,0.00,24.0,25.7,"04:07:44",1
"23/08/15","04:20",2.6,26.3,85.7,989.6,19.5,1.8,7.0,357.0,0.00,23.8,25.4,"04:10:32",1
"23/08/15","04:30",4.4,26.0,87.1,989.9,20.7,3.2,9.8,352.0,0.00,23.7,25.3,"04:25:36",1
"23/08/15","04:40",3.0,25.8,88.2,990.1,154.5,1.6,5.1,344.9,0.00,23.7,25.2,"04:30:32",1
"23/08/15","04:50",2.0,25.6,89.1,990.1,93.0,1.1,3.1,135.8,0.00,23.7,25.3,"04:49:36",1
"23/08/15","05:00",0.4,25.5,89.8,989.4,24.9,1.5,4.0,12.2,0.00,23.7,25.2,"04:58:00",1
"23/08/15","05:10",0.0,25.6,90.0,989.6,14.1,1.7,4.5,354.1,0.00,23.9,25.3,"05:07:36",1
"23/08/15","05:20",0.0,25.7,90.0,989.2,19.7,1.8,4.2,340.7,0.00,24.0,25.4,"05:15:36",1
"23/08/15","05:30",0.2,25.8,89.9,989.4,13.7,2.0,5.6,356.4,0.00,24.1,25.5,"05:27:12",1
"23/08/15","05:40",0.4,25.9,89.8,989.4,10.2,2.3,6.0,15.9,0.00,24.1,25.3,"05:39:20",1
"23/08/15","05:50",0.0,26.0,89.7,988.9,17.3,2.0,5.9,8.9,0.00,24.2,25.5,"05:40:48",1
"23/08/15","06:00",0.2,26.1,89.4,988.2,14.6,3.0,8.2,351.2,0.00,24.3,25.2,"05:58:16",1
"23/08/15","06:10",0.2,26.0,89.1,988.2,15.0,2.0,5.1,24.7,0.00,24.1,25.5,"06:01:36",1
"23/08/15","06:20",0.2,26.0,88.7,988.2,36.5,2.5,7.9,8.5,0.00,24.0,25.3,"06:19:28",1
"23/08/15","06:30",0.2,26.0,88.4,988.0,36.7,2.6,7.0,353.4,0.00,24.0,25.4,"06:24:24",1
"23/08/15","06:40",0.8,25.9,88.3,987.5,21.8,3.1,8.5,58.0,0.00,23.9,25.5,"06:37:52",1
"23/08/15","06:50",3.2,25.5,88.7,987.5,23.5,3.0,5.8,38.3,0.00,23.5,25.4,"06:42:48",1
"23/08/15","07:00",1.6,25.5,89.2,987.3,25.8,2.8,8.0,37.3,0.00,23.6,25.0,"06:52:40",1
"23/08/15","07:10",0.6,25.4,89.6,987.0,29.5,2.7,6.6,49.8,0.00,23.6,25.2,"07:00:32",1
"23/08/15","07:20",0.6,25.4,89.7,987.3,40.1,2.7,10.4,2.8,0.00,23.6,25.2,"07:18:24",1
"23/08/15","07:30",0.4,25.5,89.7,987.0,33.2,3.0,6.3,26.0,0.00,23.7,25.3,"07:24:08",1
"23/08/15","07:40",0.6,25.5,89.7,986.8,34.5,3.1,8.9,1.7,0.00,23.7,25.1,"07:36:42",1
"23/08/15","07:50",1.0,25.5,90.0,987.0,41.8,2.7,6.4,57.6,0.00,23.8,25.2,"07:40:24",1
"23/08/15","08:00",0.2,25.6,90.1,986.6,57.5,3.0,8.3,34.2,0.00,23.9,25.2,"07:50:32",1
"23/08/15","08:10",0.4,25.7,90.0,986.1,32.5,3.2,12.3,10.5,0.00,24.0,25.2,"08:04:48",1
"23/08/15","08:20",0.2,25.8,90.1,986.3,36.9,2.5,6.0,63.4,0.00,24.1,25.3,"08:16:32",1
"23/08/15","08:30",0.2,26.0,89.8,986.1,48.0,3.1,7.7,37.3,0.00,24.2,25.2,"08:21:52",1
"23/08/15","08:40",0.2,26.1,89.4,986.1,47.7,2.6,7.2,24.1,0.00,24.3,25.3,"08:31:28",1
"23/08/15","08:50",0.2,26.2,89.2,985.9,58.2,3.1,8.7,12.7,0.00,24.3,25.1,"08:42:32",1
"23/08/15","09:00",0.2,26.4,88.8,985.2,59.7,2.7,8.9,122.4,0.01,24.4,25.3,"08:52:08",1
"23/08/15","09:10",0.2,26.4,88.6,984.9,52.4,2.8,7.0,346.6,0.02,24.4,25.1,"09:05:44",1
"23/08/15","09:20",0.2,26.4,88.6,984.9,62.1,2.7,7.1,116.6,0.01,24.4,25.2,"09:16:16",1
"23/08/15","09:30",0.4,26.3,88.6,984.7,72.6,3.0,9.6,121.6,0.00,24.3,25.2,"09:27:20",1
"23/08/15","09:40",0.2,26.2,88.5,984.7,76.3,2.6,5.6,66.1,0.01,24.2,25.2,"09:32:16",1
"23/08/15","09:50",0.2,26.2,88.7,984.7,78.1,2.7,5.8,89.7,0.01,24.2,25.1,"09:45:06",1
"23/08/15","10:00",0.0,26.2,88.7,984.4,81.0,3.1,8.1,66.6,0.01,24.2,25.3,"09:50:02",1
"23/08/15","10:10",0.2,26.3,88.6,984.4,64.6,2.5,5.9,25.7,0.02,24.3,25.3,"10:03:12",1
"23/08/15","10:20",0.4,26.2,88.6,984.4,81.9,2.6,6.6,72.7,0.01,24.2,25.2,"10:18:40",1
"23/08/15","10:30",0.4,26.3,88.8,984.4,82.1,2.6,6.2,60.4,0.00,24.3,25.3,"10:24:00",1
"23/08/15","10:40",1.4,26.2,89.2,984.0,81.1,3.1,8.8,112.0,0.02,24.3,25.3,"10:34:08",1
"23/08/15","10:50",1.4,26.0,89.8,984.2,81.1,2.6,6.5,71.4,0.01,24.2,25.1,"10:45:38",1
"23/08/15","11:00",1.2,25.9,90.4,984.0,85.1,2.7,6.6,10.9,0.01,24.2,25.0,"10:56:10",1
"23/08/15","11:10",0.8,25.9,90.7,984.0,86.0,2.2,5.0,79.7,0.02,24.3,25.2,"11:06:40",1
"23/08/15","11:20",0.6,25.9,91.1,984.0,76.4,2.1,5.1,98.6,0.02,24.4,25.2,"11:12:48",1
"23/08/15","11:30",0.6,25.8,91.4,984.2,81.2,2.3,7.0,90.0,0.02,24.3,25.2,"11:26:24",1
"23/08/15","11:40",1.0,25.8,91.7,984.4,85.6,1.8,4.5,97.9,0.02,24.4,25.4,"11:39:20",1
"23/08/15","11:50",0.8,25.8,91.8,984.9,82.1,2.3,7.3,107.9,0.02,24.4,25.2,"11:49:04",1
"23/08/15","12:00",0.8,25.8,92.0,984.7,86.2,2.0,7.0,72.2,0.01,24.4,25.2,"11:54:00",1
"23/08/15","12:10",0.6,25.8,92.1,984.7,105.2,2.2,5.5,98.8,0.01,24.5,25.2,"12:09:20",1
"23/08/15","12:20",1.2,25.8,92.2,984.9,99.7,2.0,4.4,119.5,0.01,24.5,25.2,"12:16:56",1
"23/08/15","12:30",1.4,25.8,92.3,985.2,96.0,2.1,6.2,83.4,0.01,24.5,25.2,"12:23:14",1
"23/08/15","12:40",0.8,25.7,92.4,985.6,105.7,2.0,4.2,100.0,0.01,24.4,25.1,"12:36:42",1
"23/08/15","12:50",1.4,25.7,92.5,985.9,102.5,2.1,4.4,125.2,0.01,24.4,25.1,"12:42:48",1
"23/08/15","13:00",1.4,25.7,92.6,985.9,106.4,1.5,3.3,115.0,0.01,24.4,25.1,"12:52:56",1
"23/08/15","13:10",1.2,25.7,92.7,986.3,91.7,1.5,2.8,32.8,0.01,24.5,25.2,"13:03:44",1
"23/08/15","13:20",0.8,25.6,92.8,986.1,111.3,1.5,4.1,148.4,0.01,24.4,25.3,"13:11:36",1
"23/08/15","13:30",0.8,25.6,92.9,986.3,111.6,1.6,4.3,117.9,0.01,24.4,25.3,"13:28:32",1
"23/08/15","13:40",1.0,25.7,93.0,986.3,94.0,1.7,4.8,105.5,0.01,24.5,25.2,"13:35:04",1
"23/08/15","13:50",1.2,25.7,93.0,986.3,114.3,1.5,4.1,81.3,0.00,24.5,24.9,"13:44:40",1
"23/08/15","14:00",1.0,25.6,93.2,986.3,109.4,1.3,4.2,99.7,0.00,24.5,25.3,"13:54:40",1
"23/08/15","14:10",0.8,25.6,93.2,986.8,100.4,1.7,4.2,105.2,0.00,24.5,25.2,"14:09:52",1
"23/08/15","14:20",1.0,25.6,93.2,986.8,125.2,1.5,3.3,129.5,0.00,24.5,25.0,"14:19:44",1
"23/08/15","14:30",1.0,25.6,93.3,986.6,139.1,1.5,4.2,124.8,0.00,24.5,25.2,"14:25:04",1
"23/08/15","14:40",0.6,25.6,93.3,986.8,125.0,1.3,3.3,125.4,0.00,24.5,25.3,"14:39:28",1
"23/08/15","14:50",0.8,25.6,93.4,986.8,131.3,1.5,3.3,82.8,0.00,24.5,25.2,"14:47:36",1
"23/08/15","15:00",0.6,25.7,93.4,986.3,138.5,1.2,3.1,177.4,0.00,24.6,25.3,"14:53:14",1
"23/08/15","15:10",0.8,25.8,93.5,986.8,187.8,1.3,2.7,190.2,0.00,24.7,25.5,"15:08:08",1
"23/08/15","15:20",2.0,25.7,93.5,987.5,185.6,1.7,3.4,199.7,0.00,24.6,25.2,"15:12:48",1
"23/08/15","15:30",2.4,25.6,93.7,988.0,183.0,1.7,3.4,189.8,0.00,24.5,25.2,"15:23:04",1
"23/08/15","15:40",2.2,25.6,93.9,987.8,145.4,1.2,2.2,143.9,0.00,24.6,25.2,"15:37:36",1
"23/08/15","15:50",2.0,25.6,94.0,987.8,144.2,1.2,2.0,136.3,0.00,24.6,25.2,"15:43:28",1
"23/08/15","16:00",2.0,25.6,94.1,988.0,146.3,1.2,3.4,131.7,0.00,24.6,25.2,"15:52:48",1
"23/08/15","16:10",2.8,25.6,94.2,988.0,173.2,1.2,2.7,180.5,0.00,24.6,25.2,"16:01:20",1
"23/08/15","16:20",1.6,25.6,94.5,988.2,149.0,1.5,3.5,125.3,0.00,24.7,25.2,"16:18:08",1
"23/08/15","16:30",1.2,25.7,94.6,988.2,131.4,1.0,2.2,144.5,0.02,24.8,25.3,"16:20:40",1
"23/08/15","16:40",1.6,25.6,94.6,988.5,150.7,1.6,3.5,177.4,0.01,24.7,25.1,"16:37:04",1
"23/08/15","16:50",1.4,25.5,94.8,988.2,169.3,1.8,3.4,189.2,0.00,24.6,25.2,"16:43:20",1
"23/08/15","17:00",1.8,25.4,94.8,988.7,146.4,1.3,2.9,109.8,0.00,24.5,25.2,"16:58:16",1
"23/08/15","17:10",2.2,25.5,94.9,988.9,161.3,1.7,4.7,132.1,0.00,24.7,25.2,"17:05:12",1
"23/08/15","17:20",0.4,25.2,95.0,988.9,160.6,2.1,3.7,182.6,0.00,24.4,25.2,"17:16:40",1
"23/08/15","17:30",0.8,25.2,95.0,989.4,169.5,3.4,6.7,187.4,0.00,24.4,25.2,"17:22:32",1
"23/08/15","17:40",2.2,25.2,95.1,989.4,166.3,2.0,4.3,181.4,0.00,24.4,25.2,"17:36:48",1
"23/08/15","17:50",0.2,25.2,95.1,989.9,155.1,2.2,4.3,135.3,0.00,24.4,25.1,"17:41:36",1
"23/08/15","18:00",0.2,25.2,95.2,989.4,154.8,1.6,5.2,126.2,0.00,24.4,25.3,"17:56:48",1
"23/08/15","18:10",0.0,25.2,95.2,989.6,151.6,2.2,5.0,184.8,0.00,24.4,25.1,"18:08:00",1
"23/08/15","18:20",1.2,25.1,95.2,989.6,164.8,2.3,4.8,183.9,0.00,24.3,25.2,"18:15:12",1
"23/08/15","18:30",0.2,25.2,95.3,989.9,137.2,1.8,4.4,138.3,0.00,24.4,25.2,"18:20:16",1
"23/08/15","18:40",0.2,25.1,95.3,990.1,155.2,2.3,5.4,132.2,0.00,24.3,25.2,"18:31:36",1
"23/08/15","18:50",0.0,25.0,95.3,990.4,148.3,2.0,5.4,141.7,0.00,24.2,25.2,"18:41:44",1
"23/08/15","19:00",0.4,25.1,95.4,990.4,141.3,2.2,5.0,139.3,0.00,24.4,25.2,"18:54:40",1
"23/08/15","19:10",1.2,25.2,95.4,990.6,158.1,2.1,4.5,135.5,0.00,24.5,25.1,"19:04:16",1
"23/08/15","19:20",1.4,25.0,95.4,990.8,146.3,2.1,4.4,152.6,0.00,24.3,25.1,"19:12:40",1
"23/08/15","19:30",1.0,24.9,95.5,990.8,144.8,2.2,4.8,138.3,0.00,24.2,25.1,"19:29:04",1
"23/08/15","19:40",1.6,24.9,95.5,991.1,149.7,2.3,4.9,120.3,0.00,24.2,25.1,"19:33:36",1
"23/08/15","19:50",1.4,24.9,95.6,991.1,126.8,1.7,5.0,151.4,0.00,24.2,25.0,"19:45:44",1
"23/08/15","20:00",1.2,24.9,95.6,991.3,148.3,1.6,4.3,166.6,0.00,24.2,25.0,"19:52:24",1
"23/08/15","20:10",1.0,24.8,95.6,992.2,160.2,1.2,2.6,202.9,0.00,24.1,25.2,"20:01:20",1
"23/08/15","20:20",1.0,24.8,95.7,992.0,168.6,0.6,1.4,151.4,0.00,24.1,25.1,"20:16:16",1
"23/08/15","20:30",0.8,24.9,95.7,992.7,167.3,0.8,3.4,204.9,0.00,24.2,25.1,"20:28:48",1
"23/08/15","20:40",1.0,24.9,95.7,992.5,177.9,1.0,2.5,178.6,0.00,24.2,25.2,"20:33:12",1
"23/08/15","20:50",0.6,24.9,95.7,992.2,165.7,1.0,2.9,177.3,0.00,24.2,25.2,"20:49:20",1
"23/08/15","21:00",0.2,24.9,95.7,992.5,161.7,1.3,3.5,143.8,0.00,24.2,25.1,"20:50:02",1
"23/08/15","21:10",0.2,25.0,95.7,993.0,160.5,1.8,4.0,166.3,0.00,24.3,25.2,"21:02:24",1
"23/08/15","21:20",0.4,24.9,95.7,993.4,167.0,2.1,3.9,186.8,0.00,24.2,24.9,"21:18:56",1
"23/08/15","21:30",0.2,24.9,95.8,993.0,167.5,1.8,7.0,215.7,0.00,24.2,25.1,"21:20:08",1
"23/08/15","21:40",0.0,24.9,95.8,993.4,157.7,1.0,1.9,208.9,0.00,24.2,25.2,"21:38:24",1
"23/08/15","21:50",0.2,24.9,95.8,993.2,159.1,1.3,3.2,155.2,0.00,24.2,25.1,"21:48:24",1
"23/08/15","22:00",0.2,24.9,95.8,993.7,166.3,1.6,3.2,175.5,0.00,24.2,25.2,"21:53:04",1
"23/08/15","22:10",0.4,24.9,95.9,993.4,164.5,1.2,2.8,175.1,0.00,24.2,25.2,"22:09:12",1
"23/08/15","22:20",0.2,24.9,95.9,993.7,159.4,1.3,3.7,183.2,0.00,24.2,25.3,"22:11:12",1
"23/08/15","22:30",0.0,24.9,95.9,993.7,145.4,1.1,2.5,192.3,0.00,24.2,25.0,"22:23:52",1
"23/08/15","22:40",0.2,24.9,95.9,993.9,155.6,0.7,2.4,168.0,0.00,24.2,25.3,"22:36:08",1
"23/08/15","22:50",1.0,24.9,95.9,994.1,187.6,1.6,3.4,151.8,0.00,24.2,25.1,"22:49:44",1
"23/08/15","23:00",0.2,24.9,95.9,994.1,157.6,1.5,3.1,131.5,0.00,24.2,25.0,"22:57:52",1
"23/08/15","23:10",0.2,24.9,96.0,994.1,153.6,1.6,3.2,137.9,0.00,24.3,25.0,"23:00:48",1
"23/08/15","23:20",0.2,24.8,96.0,993.9,154.5,1.3,3.3,141.4,0.00,24.2,25.0,"23:12:56",1
"23/08/15","23:30",0.2,24.8,96.0,994.4,144.6,0.8,2.0,134.2,0.00,24.2,25.2,"23:23:20",1
"23/08/15","23:40",0.6,24.8,96.0,994.6,209.3,0.7,2.1,237.1,0.00,24.2,25.3,"23:34:24",1
"23/08/15","23:50",0.0,24.9,96.0,994.4,177.1,1.2,2.7,180.0,0.00,24.3,24.9,"23:47:28",1
"23/08/15","24:00",0.0,24.9,96.0,994.1,156.2,1.0,1.9,185.0,0.00,24.3,25.1,"23:50:40",1
